Total_Precipitation_Accumulation
0.02 0.06 0.12 0.18 0.16 0.11 0.07 0.05 0.06 0.08 0.15 0.24 0.41 0.52 0.56 0.55 0.56 0.52 0.43 0.43 0.46 0.54 0.58 0.64 0.69 0.67 0.67 0.77 0.77 0.80 0.94 1.03 1.08 1.09 1.17 1.30 1.38 1.35 1.39 1.42 1.42 1.57 1.64 1.61
0.03 0.06 0.08 0.12 0.14 0.10 0.07 0.06 0.06 0.08 0.16 0.29 0.46 0.52 0.57 0.55 0.50 0.48 0.52 0.51 0.58 0.65 0.70 0.69 0.71 0.78 0.81 0.81 0.83 0.99 1.32 1.44 1.42 1.43 1.47 1.49 1.51 1.49 1.55 1.62 1.79 1.85 1.80 1.76
0.05 0.07 0.09 0.14 0.13 0.10 0.09 0.08 0.09 0.14 0.24 0.32 0.44 0.60 0.68 0.60 0.48 0.47 0.48 0.52 0.58 0.72 0.80 0.77 0.73 0.78 0.88 0.91 0.93 1.09 1.31 1.43 1.50 1.52 1.56 1.66 1.69 1.70 1.73 1.80 1.87 1.95 2.01 2.00
0.10 0.11 0.18 0.16 0.15 0.15 0.13 0.14 0.17 0.28 0.38 0.43 0.45 0.52 0.56 0.48 0.46 0.49 0.51 0.60 0.70 0.73 0.84 0.89 0.91 0.94 1.06 1.18 1.28 1.34 1.42 1.53 1.66 1.67 1.72 1.76 1.76 1.71 1.71 1.79 1.78 1.74 1.74 1.71
0.21 0.20 0.20 0.18 0.21 0.23 0.22 0.28 0.33 0.47 0.59 0.64 0.62 0.60 0.69 0.63 0.58 0.57 0.65 0.74 0.91 1.04 1.03 1.05 1.14 1.21 1.25 1.42 1.56 1.58 1.60 1.75 1.87 1.96 2.03 1.97 1.87 1.86 1.83 1.81 1.68 1.59 1.54 1.52
0.33 0.35 0.35 0.29 0.33 0.32 0.34 0.58 0.58 0.66 0.78 0.84 0.84 1.01 1.06 0.83 0.79 0.71 0.69 0.77 0.87 1.07 1.19 1.17 1.27 1.37 1.42 1.45 1.50 1.56 1.58 1.68 1.85 1.96 2.11 2.18 2.11 2.08 2.00 1.94 1.86 1.78 1.71 1.70
0.42 0.44 0.41 0.39 0.37 0.39 0.72 1.00 0.92 0.91 0.94 1.01 1.12 1.10 1.03 0.87 0.87 0.91 0.81 0.77 0.81 0.88 1.04 1.12 1.20 1.28 1.39 1.43 1.40 1.46 1.46 1.47 1.62 1.83 2.01 2.12 2.20 2.15 2.13 2.07 1.99 1.82 1.69 1.65
0.56 0.71 0.81 0.57 0.47 0.69 0.97 0.99 1.15 1.09 1.08 1.16 1.19 1.18 1.13 1.06 1.00 0.95 0.90 0.83 0.85 0.90 0.95 1.03 1.17 1.37 1.51 1.53 1.51 1.51 1.55 1.65 1.75 1.87 1.92 1.93 1.99 2.03 2.07 2.05 2.00 1.89 1.67 1.47
0.87 1.02 0.94 0.68 0.71 0.79 0.82 1.00 1.10 1.13 1.14 1.17 1.17 1.14 1.05 0.94 0.93 1.01 0.94 0.91 0.86 0.90 1.02 1.17 1.33 1.55 1.76 1.77 1.78 1.77 1.77 1.80 1.83 1.91 1.95 2.00 1.99 1.95 1.92 1.86 1.75 1.63 1.47 1.39
1.16 1.30 1.09 0.92 0.84 0.86 0.96 1.07 1.17 1.26 1.32 1.23 1.10 1.02 1.00 0.96 0.91 0.98 0.99 0.92 0.87 0.86 0.94 1.12 1.22 1.33 1.55 1.67 1.72 1.83 1.77 1.69 1.63 1.62 1.65 1.70 1.75 1.76 1.76 1.70 1.64 1.54 1.41 1.37
1.49 1.71 1.57 1.35 1.11 1.00 1.12 1.30 1.45 1.48 1.41 1.29 1.22 1.20 1.22 1.16 1.02 0.94 0.94 0.95 0.92 0.92 0.95 1.01 1.08 1.14 1.24 1.37 1.49 1.67 1.76 1.72 1.71 1.69 1.64 1.64 1.69 1.73 1.63 1.58 1.57 1.47 1.35 1.41
1.74 1.74 1.81 1.70 1.38 1.23 1.28 1.38 1.45 1.41 1.44 1.42 1.38 1.33 1.20 1.13 1.03 0.94 0.88 0.92 0.99 1.04 1.06 1.04 1.07 1.16 1.27 1.40 1.58 1.76 1.76 1.67 1.68 1.73 1.75 1.73 1.71 1.73 1.76 1.59 1.54 1.42 1.34 1.32
1.47 1.58 1.67 1.59 1.47 1.41 1.42 1.44 1.51 1.45 1.35 1.36 1.31 1.26 1.16 1.08 1.03 0.98 0.99 1.01 1.09 1.14 1.10 1.05 1.06 1.15 1.27 1.42 1.60 1.76 1.78 1.78 1.79 1.78 1.80 1.75 1.62 1.56 1.60 1.53 1.37 1.28 1.24 1.16
1.49 1.58 1.74 1.72 1.64 1.54 1.59 1.65 1.68 1.60 1.48 1.36 1.25 1.18 1.15 1.18 1.15 1.10 1.10 1.15 1.17 1.10 1.00 0.98 1.01 1.03 1.11 1.25 1.47 1.66 1.70 1.77 1.82 1.82 1.78 1.72 1.62 1.54 1.48 1.46 1.35 1.20 1.11 1.04
1.44 1.42 1.55 1.54 1.58 1.58 1.65 1.67 1.66 1.63 1.54 1.40 1.22 1.10 1.04 1.10 1.24 1.29 1.30 1.34 1.25 1.12 1.02 0.96 0.92 0.87 0.91 1.02 1.15 1.33 1.42 1.40 1.42 1.46 1.47 1.42 1.33 1.27 1.21 1.18 1.17 1.16 1.03 0.87
1.23 1.37 1.40 1.47 1.48 1.42 1.45 1.48 1.52 1.49 1.39 1.30 1.19 1.11 1.07 1.05 1.10 1.19 1.31 1.34 1.34 1.24 1.10 1.01 1.02 0.98 0.92 1.00 1.08 1.12 1.15 1.22 1.15 1.07 1.07 1.09 1.05 1.00 0.96 0.98 1.02 1.09 1.03 0.86
1.22 1.38 1.41 1.41 1.42 1.38 1.28 1.28 1.33 1.35 1.31 1.23 1.11 0.99 0.96 1.00 1.12 1.19 1.21 1.15 1.07 1.03 0.97 0.91 0.91 0.94 0.94 1.02 1.03 0.99 0.93 0.88 0.88 0.78 0.78 0.88 0.93 0.90 0.87 0.91 0.98 1.05 0.98 0.82
1.12 1.22 1.23 1.21 1.13 1.18 1.16 1.18 1.22 1.17 1.18 1.13 1.00 0.90 0.89 1.01 1.16 1.17 1.06 0.96 0.93 0.91 0.86 0.77 0.70 0.67 0.72 0.76 0.76 0.71 0.64 0.62 0.59 0.56 0.62 0.68 0.71 0.77 0.85 0.91 0.95 0.98 0.91 0.79
1.00 0.97 0.95 0.93 0.85 0.91 0.98 1.02 1.10 1.08 1.06 0.99 0.92 0.93 0.95 1.01 1.07 1.05 0.91 0.85 0.85 0.80 0.71 0.62 0.63 0.54 0.52 0.51 0.54 0.53 0.54 0.53 0.51 0.52 0.57 0.58 0.60 0.68 0.84 0.93 0.95 0.94 0.91 0.89
0.86 0.78 0.73 0.72 0.67 0.69 0.80 0.85 0.82 0.84 0.86 0.84 0.90 0.96 0.94 0.94 0.92 0.92 0.87 0.83 0.76 0.65 0.55 0.50 0.48 0.51 0.50 0.46 0.46 0.44 0.47 0.50 0.51 0.48 0.47 0.51 0.56 0.61 0.67 0.73 0.80 0.84 0.85 0.84
0.75 0.68 0.67 0.69 0.67 0.64 0.67 0.66 0.63 0.67 0.72 0.75 0.83 0.88 0.87 0.87 0.84 0.86 0.93 0.90 0.73 0.58 0.53 0.55 0.49 0.47 0.46 0.49 0.47 0.44 0.48 0.53 0.55 0.56 0.54 0.54 0.56 0.60 0.64 0.66 0.70 0.72 0.76 0.81
0.82 0.71 0.67 0.67 0.69 0.70 0.67 0.64 0.60 0.59 0.62 0.68 0.68 0.72 0.82 0.87 0.82 0.83 0.86 0.88 0.77 0.79 0.62 0.52 0.47 0.47 0.49 0.49 0.50 0.55 0.56 0.59 0.63 0.66 0.64 0.62 0.64 0.69 0.72 0.72 0.74 0.73 0.77 0.81
0.85 0.79 0.77 0.79 0.82 0.82 0.72 0.66 0.64 0.63 0.63 0.65 0.66 0.73 0.82 0.89 0.87 0.86 0.81 0.72 0.70 0.81 0.74 0.64 0.62 0.59 0.57 0.53 0.59 0.68 0.67 0.67 0.67 0.69 0.70 0.70 0.71 0.74 0.75 0.74 0.78 0.78 0.80 0.84
0.96 0.87 0.84 0.80 0.76 0.79 0.77 0.71 0.68 0.65 0.64 0.65 0.66 0.71 0.83 0.89 0.88 0.82 0.80 0.76 0.70 0.67 0.67 0.73 0.75 0.74 0.69 0.61 0.65 0.69 0.70 0.74 0.77 0.73 0.68 0.68 0.69 0.70 0.76 0.78 0.78 0.76 0.77 0.80
1.06 0.94 0.83 0.76 0.73 0.74 0.76 0.76 0.71 0.64 0.61 0.65 0.63 0.66 0.73 0.82 0.89 0.86 0.79 0.71 0.66 0.62 0.65 0.70 0.72 0.80 0.78 0.76 0.74 0.71 0.70 0.77 0.85 0.82 0.77 0.77 0.79 0.80 0.82 0.79 0.73 0.68 0.68 0.73
1.11 1.00 0.90 0.81 0.73 0.72 0.76 0.80 0.81 0.76 0.70 0.69 0.67 0.70 0.75 0.76 0.77 0.82 0.86 0.80 0.72 0.69 0.70 0.71 0.71 0.76 0.77 0.82 0.86 0.85 0.81 0.83 0.85 0.82 0.82 0.85 0.90 0.90 0.80 0.68 0.62 0.61 0.60 0.61
1.02 0.96 0.90 0.82 0.74 0.70 0.71 0.75 0.78 0.78 0.76 0.78 0.75 0.78 0.87 0.87 0.84 0.82 0.79 0.75 0.68 0.66 0.70 0.69 0.66 0.65 0.62 0.62 0.66 0.68 0.69 0.71 0.76 0.82 0.86 0.87 0.84 0.80 0.72 0.64 0.60 0.58 0.58 0.56